Location: Unspecified
(0.0000°N, 0.0000°E)
Time: 07:03:02
(UTC+00:00)

LES 2 - Pass Details

Date: 18 October 2025
Orbit: 2783 x 14792 km, 32.1° (Epoch: 30 October)

Event Time Altitude Azimuth Distance (km) Brightness Sun altitude
Exits shadow 02:52:44 10° 225° (SW) 6,524 ? -42.4°
Reaches altitude 10° 02:52:45 10° 225° (SW) 6,524 ? -42.4°
Maximum altitude 03:12:35 30° 163° (SSE) 7,696 ? -37.5°
Drops below altitude 10° 04:21:19 10° 97° (E) 17,351 ? -20.7°
Sets 05:07:21 0° 82° (E) 20,169 ? -9.3°
